Regional Weather Roundup
Issued by NWS Northern Indiana

Home | Current Version | Previous Version | Text Only | Print | Product List | Glossary Off
Versions: 1 2 3 4 5 6 7 8 9 10 11 12 13 14 15 16 17 18 19 20 21 22 23 24 25 26 27 28 29 30 31 32 33 34 35 36 37 38 39 40 41 42 43 44 45 46 47 48 49 50

000
ASUS43 KIWX 231910
RWRIWX

KIWX WEATHER ROUNDUP
NATIONAL WEATHER SERVICE NORTHERN INDIANA
300 PM EDT THU MAR 23 2017

NOTE: "FAIR" INDICATES FEW OR NO CLOUDS BELOW 12,000 FEET WITH NO
SIGNIFICANT WEATHER AND/OR OBSTRUCTIONS TO VISIBILITY.

* THESE STATIONS ARE NOT UNDER NWS QUALITY CONTROL. THEY ALSO MAY NOT
  REPORT WEATHER SUCH AS PRECIPITATION OR FOG.

INZ001>027-232000-
NORTHERN INDIANA

CITY           SKY/WX    TMP DP  RH WIND       PRES   REMARKS
GARY*          CLOUDY    48  18  29 S14G26    30.28F
VALPARAISO     MOSUNNY   47  21  35 SE17G26   30.29F
MICHIGAN CITY* SUNNY     45  21  39 SE13G20   30.30F
LAPORTE*       SUNNY     42  23  46 SE16      30.31F
KNOX*          SUNNY     43  -4  14 SE13G20   30.31F
SOUTH BEND       N/A     41  20  43 S18       30.33F
ELKHART*       SUNNY     41  18  38 SE13      30.35F
GOSHEN         CLOUDY    42  20  41 SE13G20   30.34F
MONTICELLO*    CLOUDY    47  23  38 SE12      30.30F
LOGANSPORT*    SUNNY     46  27  46 SE13      30.32F
ROCHESTER*     SUNNY     46  21  36 SE12      30.33F
WARSAW*        MOSUNNY   41  21  45 SE14      30.34F
ANGOLA*        MOSUNNY   41  27  56 S16       30.37F
FORT WAYNE     PTSUNNY   43  23  45 SE12      30.36F
HUNTINGTON*    CLOUDY    41  21  43 SE9G16    30.35F
PERU/GRISSOM   SUNNY     47  24  41 SE13G21   30.30F
MARION*        CLOUDY    44  23  43 SE12      30.33F

$$
INZ028>050-232000-
CENTRAL INDIANA

CITY           SKY/WX    TMP DP  RH WIND       PRES   REMARKS
LAFAYETTE      PTSUNNY   51  24  34 SE16      30.29F
KOKOMO*        SUNNY     47  26  44 SE13      30.33F
MUNCIE*        CLOUDY    48  23  37 SE15      30.33F
INDIANAPOLIS   PTSUNNY   52  23  32 SE16      30.29F

$$
MIZ043>046-050>051-056>058-064>065-071>073-077>080-232000-
SOUTHWEST LOWER MICHIGAN

CITY           SKY/WX    TMP DP  RH WIND       PRES   REMARKS
BATTLE CREEK   CLOUDY    46   8  21 S14G21    30.34F
BENTON HARBOR  PTSUNNY   43  13  29 SE17G23   30.31F
COLDWATER*     CLOUDY    43  10  25 S12G18    30.36F
HILLSDALE*     SUNNY     43  10  26 SE15G23   30.34F
HOLLAND        CLOUDY    45   8  22 S18       30.32F
GRAND RAPIDS   CLOUDY    43  10  26 SE14      30.32F
KALAMAZOO      MOSUNNY   45   5  19 S10G21    30.35F
STURGIS*       CLOUDY    43  17  35 SE16      30.34F
THREE RIVERS*  CLOUDY    43  13  30 S13G21    30.35F

$$
OHZ001>008-015>018-024>025-232000-
NORTHWEST OHIO

CITY           SKY/WX    TMP DP  RH WIND       PRES   REMARKS
WAUSEON*       FAIR      48  12  23 SE12G18   30.39F
DEFIANCE       SUNNY     45  16  31 SE9G16    30.39F
FINDLAY        MOSUNNY   49  12  22 SE15      30.38F
TOLEDO EXPRESS SUNNY     45   7  21 SE7       30.39F
TOLEDO METCALF SUNNY     45  15  30 E6G18     30.42F
LIMA           CLOUDY    48  14  25 SE10      30.37F

$$
AND FOR LAKE MICHIGAN COASTAL AND OPEN LAKE BUOY OBSERVATIONS

STATION/POSITION TEMP    WIND        PRES    VSBY  WAVE
                 AIR SEA DIR/SP/G                  HT/PER
                 (F)     (DEG/KT/KT) (MB)    (MI)  (FT/S)
CALUMET HARBOR    45     140/ 15/ 20 1024.3F
MICHIGAN CITY     41     130/ 19/ 23   N/A
BURNS HARBOR      44     140/ 15/ 21 1026.1F

$$
&&



USA.gov is the U.S. government's official web portal to all federal, state and local government web resources and services.